This demonstration page uses our WeatherBlox Daily Observations layout. Learn more.

Left ArrowRight Arrow

31.84235, -102.49876

Hourly Observations for May 21, 2015

Temp ( °F °C ) Dew Point ( °F °C ) Humidity (%) Winds ( mph kmh ) Pressure ( in mb ) Visibility ( mi km ) Precip ( " mm )
12:53 am 00:53 Cloudy with Mist and Fog 55 12.8 51 10.6 87 87 ENE 18 30 30.10 1019 6 10 0.00 0.00
1:53 am 01:53 Cloudy 54 12.2 50 10 87 87 ENE 18 30 30.09 1019 10 16 0.00 0.00
2:53 am 02:53 Cloudy with Mist and Fog 54 12.2 50 10 87 87 ENE 18 30 30.09 1019 5 8 0.00 0.00
3:21 am 03:21 Cloudy with Mist and Fog 53 11.7 51 10.6 93 93 ENE 17 28 30.15 1021 2 3 0.00 0.00
3:53 am 03:53 Cloudy with Mist and Fog 53 11.7 50 10 89 89 ENE 16 26 30.10 1019 3 5 0.00 0.00
4:26 am 04:26 Cloudy with Mist and Fog 52 11.1 50 10 93 93 ENE 16 26 30.15 1021 3 4 0.00 0.00
4:51 am 04:51 Cloudy with Mist and Fog 52 11 50 10 94 94 ENE 18 30 30.15 1021 3 5 0.00 0.00
4:53 am 04:53 Cloudy with Mist and Fog 52 11.1 50 10 93 93 ENE 16 26 30.11 1020 4 6 0.00 0.00
5:53 am 05:53 Cloudy with Mist and Fog 52 11.1 49 9.4 89 89 ENE 21 33 30.11 1020 4 6 0.00 0.03
6:53 am 06:53 Cloudy with Mist and Fog 51 10.6 49 9.4 92 92 ENE 18 30 30.14 1021 4 6 0.00 0.00
7:53 am 07:53 Cloudy with Mist and Fog 51 10.6 49 9.4 92 92 ENE 17 28 30.15 1021 3 4 0.00 0.03
8:04 am 08:04 Cloudy with Mist and Fog 51 10.6 48 8.9 89 89 NE 15 24 30.18 1022 3 5 0.00 0.00
8:12 am 08:12 Cloudy with Mist and Fog 51 10.6 48 8.9 89 89 ENE 17 28 30.18 1022 3 4 0.00 0.00
8:21 am 08:21 Cloudy with Mist and Fog 51 10.6 48 8.9 89 89 ENE 20 31 30.18 1022 5 8 0.00 0.00
8:53 am 08:53 Cloudy 51 10.6 48 8.9 89 89 ENE 17 28 30.16 1021 9 14 0.00 0.00
9:17 am 09:17 Cloudy 52 11.1 48 8.9 86 86 ENE 15 24 30.21 1023 10 16 0.00 0.00
9:53 am 09:53 Cloudy with Mist and Fog 51 10.6 48 8.9 89 89 ENE 20 31 30.17 1022 5 8 0.00 0.00
10:18 am 10:18 Cloudy 52 11.1 48 8.9 86 86 E 16 26 30.21 1023 10 16 0.00 0.00
10:33 am 10:33 Cloudy 52 11.1 48 8.9 86 86 ENE 16 26 30.21 1023 10 16 0.00 0.00
10:53 am 10:53 Cloudy 52 11.1 48 8.9 86 86 ENE 16 26 30.17 1022 10 16 0.00 0.00
11:53 am 11:53 Cloudy 52 11.1 48 8.9 86 86 E 18 30 30.16 1021 10 16 0.00 0.00
12:53 pm 12:53 Cloudy 54 12.2 48 8.9 80 80 E 14 22 30.16 1021 10 16 0.00 0.00
1:53 pm 13:53 Cloudy 55 12.8 48 8.9 77 77 ENE 15 24 30.15 1021 10 16 0.00 0.00
2:36 pm 14:36 Cloudy 55 12.8 48 8.9 77 77 ENE 15 24 30.15 1021 9 14 0.00 0.00
2:53 pm 14:53 Cloudy 55 12.8 48 8.9 77 77 E 14 22 30.13 1020 8 13 0.00 0.00
3:53 pm 15:53 Cloudy 54 12.2 50 10 87 87 E 13 20 30.12 1020 7 11 0.02 0.51
4:08 pm 16:08 Cloudy with Nearby Thunderstorms 54 12.2 50 10 87 87 E 15 24 30.15 1021 3 4 0.00 0.03
4:18 pm 16:18 Cloudy with Nearby Thunderstorms 54 12.2 50 10 87 87 E 14 22 30.15 1021 4 6 0.01 0.25
4:29 pm 16:29 Cloudy with Mist and Fog 54 12.2 50 10 87 87 E 12 19 30.09 1019 6 10 0.01 0.25
4:53 pm 16:53 Cloudy 55 12.8 51 10.6 87 87 E 12 19 30.09 1019 9 14 0.01 0.25
5:53 pm 17:53 Cloudy 55 12.8 50 10 83 83 E 13 20 30.06 1018 9 14 0.00 0.00
6:46 pm 18:46 Cloudy with Mist and Fog 54 12.2 51 10.6 90 90 E 9 15 30.09 1019 3 4 0.00 0.00
6:53 pm 18:53 Cloudy with Mist and Fog 54 12.2 51 10.6 90 90 E 7 11 30.08 1019 2 3 0.00 0.00
7:03 pm 19:03 Cloudy with Mist and Fog 54 12.2 52 11.1 93 93 E 7 11 30.09 1019 2 2 0.00 0.00
7:53 pm 19:53 Cloudy with Mist and Fog 54 12.2 52 11.1 93 93 ENE 8 13 30.05 1018 2 2 0.00 0.03
8:21 pm 20:21 Cloudy with Mist and Fog 54 12.2 52 11.1 93 93 E 10 17 30.06 1018 3 4 0.00 0.00
8:37 pm 20:37 Cloudy with Mist and Fog 54 12.2 52 11.1 93 93 E 10 17 30.06 1018 2 2 0.00 0.00
8:53 pm 20:53 Cloudy with Mist and Fog 54 12.2 52 11.1 93 93 ENE 9 15 30.05 1018 3 4 0.00 0.00
9:09 pm 21:09 Cloudy with Mist and Fog 54 12.2 52 11.1 93 93 E 8 13 30.06 1018 3 5 0.00 0.00
9:20 pm 21:20 Cloudy with Mist and Fog 55 12.8 52 11.1 90 90 E 8 13 30.06 1018 3 5 0.00 0.00
9:33 pm 21:33 Cloudy with Mist and Fog 55 12.8 52 11.1 90 90 E 12 19 30.06 1018 3 4 0.00 0.00
9:45 pm 21:45 Cloudy with Mist and Fog 55 12.8 52 11.1 90 90 E 12 19 30.06 1018 2 3 0.00 0.00
9:53 pm 21:53 Cloudy with Mist and Fog 55 12.8 52 11.1 90 90 E 12 19 30.04 1017 2 3 0.00 0.00
10:02 pm 22:02 Cloudy with Mist and Fog 55 12.8 53 11.7 93 93 E 13 20 30.06 1018 2 3 0.00 0.00
10:53 pm 22:53 Cloudy with Light Rain 56 13.3 54 12.2 93 93 ESE 12 19 30.05 1018 2 3 0.00 0.03
11:04 pm 23:04 Cloudy with Mist and Fog 56 13.3 54 12.2 93 93 ESE 14 22 30.06 1018 4 6 0.00 0.03
11:53 pm 23:53 Cloudy with Mist and Fog 56 13.3 54 12.2 93 93 ESE 13 20 30.04 1017 6 10 0.01 0.25

Powered by AerisWeather